Point Lay Lrrs Airport
PPIZ : rendu visible

Aérodrome :











RETROUVEZ-NOUS SUR...

 
LOGIN :

S'inscrire | Disclaimer

   EN    FR    IT 

 









Légende :    VFR   VFR Marginal   IFR   IFR Intensif   IFR Très Intensif
Visi : 
Plafond : 
>= 8 km
>= 3000ft
5 à 8 km
1000 à 3000 ft
1500m à 5 km
500 à 1000 ft
800 à 1500m
200 à 500 ft
< 800m
< 200 ft
Symboles :   Orages  Brouillard  Fortes neiges  Fortes précipitations  Vent > 20 kt






- Altitude de l'aérodrome : 22 ft
- Code IATA : PIZ


PPIZ - Point Lay Lrrs

DERNIER METAR :
  • 290256Z AUTO 07014KT 9SM -SN OVC018 M14/M16 A2957 RMK AO2 SLP019 P0000 60000 T11441161 55006 FZRANO

METARs EXPIRÉS :
  • 290156Z AUTO 07014KT 9SM -SN OVC018 M14/M16 A2957 RMK AO2 SLP018 P0000 T11441161 FZRANO
  • 290056Z AUTO 07013KT 9SM -SN OVC018 M14/M16 A2958 RMK AO2 SLP021 P0000 T11441161 FZRANO

TAF N/A
FIR PAZA / Amérique du Nord



MET'MAP, la Météo Aéronautique d'un coup d'oeil ! - Copyright ORBIFLY Décembre 2007 - Disclaimer

ORBIFLY MET'MAP TEAM :

Programmation & Développement : Alexandra Zaïnal
Sur une idée originale de : Baudouin d'Aumeries
Assistance à la programmation : Marc-Olivier Méhu
Soutien technique & logistique : Manuel Goepfert

Contact : metmap@orbifly.com




SOURCES & CREDITS :

   NOAA       Earth
Advisory